Location: Unspecified
(45.0173°N, 35.2345°E)
Time: 18:17:17
(UTC+02:00)

ARIANE 6 FM1 Upper Stage - Visible Passes

Search period start: 20 January 2026 00:00
Search period end: 30 January 2026 00:00
Orbit: 522 x 610 km, 62.0° (Epoch: 20 January)

Date Brightness Start Highest point End Pass type
(mag) Time Alt. Az. Time Alt. Az. Time Alt. Az.
20 Jan 4.5 17:59:06 10° SSE 18:00:42 15° SE 18:00:42 15° SE visible
20 Jan 5.4 19:36:08 10° SW 19:36:46 14° SW 19:36:46 14° SW visible
21 Jan 3.9 17:58:22 10° S 18:01:35 23° ESE 18:01:41 23° ESE visible
21 Jan 5.2 19:36:30 10° WSW 19:37:44 18° WSW 19:37:44 18° WSW visible
22 Jan 3.4 17:57:57 10° S 18:01:38 33° ESE 18:02:34 29° E visible
22 Jan 5.1 19:37:00 10° WSW 19:38:36 20° W 19:38:36 20° W visible
23 Jan 2.8 17:57:46 10° SSW 18:01:43 49° SE 18:03:20 30° ENE visible
23 Jan 5.1 19:37:35 10° W 19:39:24 19° WNW 19:39:24 19° WNW visible
24 Jan 2.5 17:57:44 10° SSW 18:01:49 74° SE 18:04:02 25° NE visible
24 Jan 5.2 19:38:19 10° W 19:40:04 17° NW 19:40:04 17° NW visible
25 Jan 2.7 17:57:52 10° SW 18:01:57 77° NW 18:04:37 20° NE visible
25 Jan 5.4 19:39:09 10° WNW 19:40:40 14° NW 19:40:40 14° NW visible
26 Jan 3.2 17:58:06 10° SW 18:02:06 53° NW 18:05:08 16° NNE visible
26 Jan 5.5 19:40:11 10° NW 19:41:10 12° NW 19:41:10 12° NW visible
27 Jan 3.8 17:58:28 10° WSW 18:02:17 38° NW 18:05:34 13° NNE visible
28 Jan 4.3 17:58:57 10° W 18:02:29 28° NW 18:05:56 10° NNE visible
29 Jan 4.6 17:59:33 10° W 18:02:44 22° NW 18:05:54 10° NNE visible
